When you browse on this site, cookies collect data to enhance your experience and personalize the content and advertising you see.
Visit our Privacy Policy to learn more. By continuing to use the site, you agree to this use of cookies and data.
  • In Austria
  • List of Countries
  • For 7 days
  • Water Temperature
  • Weather Map
  • News
  • Weather Widgets
  • user-avatar
    Login

    Hourly Weather Singuilucan

    Today, 15 December, Sunday

    Time Temperature Precipitation Wind Pressure Humidity
    00:00 +10°C° 0 mm 1 mps 553 mmHg 54%
    01:00 +9°C° 0 mm 1 mps 552 mmHg 56%
    02:00 +9°C° 0 mm 1 mps 552 mmHg 59%
    03:00 +9°C° 0 mm 1 mps 552 mmHg 59%
    04:00 +9°C° 0 mm 1 mps 552 mmHg 59%
    05:00 +8°C° 0 mm 1 mps 552 mmHg 59%
    06:00 +10°C° 0 mm 1 mps 553 mmHg 55%
    07:00 +12°C° 0 mm 1 mps 555 mmHg 50%
    08:00 +14°C° 0 mm 1 mps 556 mmHg 45%
    09:00 +15°C° 0 mm 1 mps 557 mmHg 38%
    10:00 +18°C° 0 mm 1 mps 557 mmHg 31%
    11:00 +20°C° 0 mm 1 mps 558 mmHg 24%
    12:00 +21°C° 0 mm 1 mps 558 mmHg 22%
    13:00 +21°C° 0 mm 1 mps 557 mmHg 21%
    14:00 +21°C° 0 mm 1 mps 557 mmHg 19%
    15:00 +19°C° 0 mm 1 mps 556 mmHg 27%
    16:00 +16°C° 0 mm 1 mps 555 mmHg 35%
    17:00 +14°C° 0 mm 1 mps 554 mmHg 43%
    18:00 +14°C° 0 mm 1 mps 554 mmHg 48%
    19:00 +13°C° 0 mm 1 mps 554 mmHg 54%
    20:00 +12°C° 0 mm 1 mps 554 mmHg 59%
    21:00 +11°C° 0 mm 1 mps 554 mmHg 61%
    22:00 +11°C° 0 mm 1 mps 554 mmHg 62%
    23:00 +10°C° 0 mm 1 mps 553 mmHg 64%

    Tomorrow, 16 December, Monday

    Time Temperature Precipitation Wind Pressure Humidity
    00:00 +10°C° 0 mm 1 mps 553 mmHg 64%
    01:00 +9°C° 0 mm 2 mps 553 mmHg 64%
    02:00 +8°C° 0 mm 2 mps 552 mmHg 63%
    03:00 +8°C° 0 mm 2 mps 552 mmHg 66%
    04:00 +9°C° 0 mm 1 mps 552 mmHg 68%
    05:00 +8°C° 0 mm 1 mps 552 mmHg 70%
    06:00 +10°C° 0 mm 1 mps 553 mmHg 65%
    07:00 +11°C° 0 mm 1 mps 554 mmHg 60%
    08:00 +13°C° 0 mm 1 mps 556 mmHg 56%
    09:00 +15°C° 0 mm 1 mps 556 mmHg 48%
    10:00 +18°C° 0 mm 1 mps 557 mmHg 40%
    11:00 +19°C° 0 mm 1 mps 558 mmHg 32%
    12:00 +20°C° 0 mm 1 mps 557 mmHg 30%
    13:00 +20°C° 0 mm 1 mps 557 mmHg 28%
    14:00 +21°C° 0 mm 1 mps 556 mmHg 26%
    15:00 +18°C° 0 mm 2 mps 556 mmHg 35%
    16:00 +16°C° 0 mm 2 mps 555 mmHg 45%
    17:00 +14°C° 0 mm 2 mps 554 mmHg 54%
    18:00 +13°C° 0 mm 2 mps 554 mmHg 57%
    19:00 +12°C° 0 mm 2 mps 554 mmHg 60%
    20:00 +11°C° 0 mm 1 mps 555 mmHg 63%
    21:00 +11°C° 0 mm 1 mps 555 mmHg 61%
    22:00 +11°C° 0 mm 1 mps 554 mmHg 60%
    23:00 +10°C° 0 mm 1 mps 554 mmHg 58%

    Day after tomorrow, 17 December, Tuesday

    Time Temperature Precipitation Wind Pressure Humidity
    00:00 +10°C° 0 mm 1 mps 554 mmHg 58%
    01:00 +9°C° 0 mm 1 mps 554 mmHg 57%
    02:00 +9°C° 0 mm 1 mps 553 mmHg 57%
    03:00 +8°C° 0 mm 1 mps 553 mmHg 60%
    04:00 +8°C° 0 mm 1 mps 553 mmHg 64%
    05:00 +7°C° 0 mm 1 mps 553 mmHg 67%
    06:00 +7°C° 0 mm 2 mps 554 mmHg 69%
    07:00 +8°C° 0 mm 2 mps 555 mmHg 71%
    08:00 +9°C° 0 mm 2 mps 556 mmHg 72%
    09:00 +10°C° 0 mm 2 mps 557 mmHg 69%
    10:00 +11°C° 0 mm 3 mps 557 mmHg 66%
    11:00 +12°C° 0 mm 3 mps 558 mmHg 62%
    12:00 +12°C° 0 mm 3 mps 557 mmHg 63%
    13:00 +12°C° 0 mm 3 mps 557 mmHg 64%
    14:00 +12°C° 0 mm 3 mps 556 mmHg 65%
    15:00 +11°C° 0 mm 3 mps 556 mmHg 72%
    16:00 +9°C° 0 mm 3 mps 555 mmHg 78%
    17:00 +8°C° 0 mm 3 mps 555 mmHg 85%
    18:00 +7°C° 0 mm 3 mps 555 mmHg 86%
    19:00 +7°C° 0 mm 3 mps 555 mmHg 87%
    20:00 +5°C° 0 mm 3 mps 555 mmHg 88%
    21:00 +6°C° 0 mm 2 mps 555 mmHg 88%
    22:00 +5°C° 0 mm 2 mps 555 mmHg 88%
    23:00 +5°C° 0 mm 2 mps 555 mmHg 87%

    18 December, Wednesday

    Time Temperature Precipitation Wind Pressure Humidity
    00:00 +5°C° 0 mm 2 mps 555 mmHg 87%
    01:00 +4°C° 0 mm 2 mps 555 mmHg 87%
    02:00 +4°C° 0 mm 2 mps 554 mmHg 87%
    03:00 +4°C° 0 mm 2 mps 555 mmHg 86%
    04:00 +4°C° 0 mm 2 mps 555 mmHg 85%
    05:00 +4°C° 0 mm 1 mps 555 mmHg 85%
    06:00 +5°C° 0 mm 1 mps 555 mmHg 82%
    07:00 +6°C° 0 mm 1 mps 556 mmHg 79%
    08:00 +6°C° 0 mm 1 mps 557 mmHg 76%
    09:00 +8°C° 0 mm 1 mps 557 mmHg 70%
    10:00 +8°C° 0 mm 2 mps 558 mmHg 64%
    11:00 +10°C° 0 mm 2 mps 558 mmHg 58%
    12:00 +10°C° 0 mm 2 mps 558 mmHg 56%
    13:00 +12°C° 0 mm 2 mps 558 mmHg 55%
    14:00 +11°C° 0 mm 3 mps 557 mmHg 53%
    15:00 +9°C° 0 mm 3 mps 556 mmHg 59%
    16:00 +8°C° 0 mm 3 mps 556 mmHg 66%
    17:00 +6°C° 0 mm 2 mps 555 mmHg 72%
    18:00 +5°C° 0 mm 2 mps 555 mmHg 76%
    19:00 +4°C° 0 mm 2 mps 555 mmHg 79%
    20:00 +4°C° 0 mm 2 mps 554 mmHg 82%
    21:00 +3°C° 0 mm 2 mps 554 mmHg 83%
    22:00 +3°C° 0 mm 2 mps 554 mmHg 83%
    23:00 +4°C° 0 mm 1 mps 554 mmHg 84%

    19 December, Thursday

    Time Temperature Precipitation Wind Pressure Humidity
    00:00 +4°C° 0 mm 1 mps 554 mmHg 85%
    01:00 +4°C° 0 mm 1 mps 553 mmHg 85%
    02:00 +4°C° 0 mm 1 mps 553 mmHg 86%
    03:00 +4°C° 0 mm 1 mps 553 mmHg 87%
    04:00 +4°C° 0 mm 1 mps 553 mmHg 88%
    05:00 +4°C° 0 mm 1 mps 553 mmHg 89%
    06:00 +5°C° 0 mm 1 mps 554 mmHg 83%
    07:00 +7°C° 0 mm 1 mps 555 mmHg 76%
    08:00 +8°C° 0 mm 1 mps 556 mmHg 70%
    09:00 +10°C° 0 mm 1 mps 557 mmHg 63%
    10:00 +13°C° 0 mm 1 mps 558 mmHg 56%
    11:00 +15°C° 0 mm 1 mps 559 mmHg 48%
    12:00 +16°C° 0 mm 1 mps 558 mmHg 46%
    13:00 +16°C° 0 mm 2 mps 558 mmHg 43%
    14:00 +17°C° 0 mm 2 mps 558 mmHg 40%
    15:00 +15°C° 0 mm 2 mps 557 mmHg 49%
    16:00 +13°C° 0 mm 2 mps 556 mmHg 57%
    17:00 +12°C° 0 mm 1 mps 555 mmHg 65%
    18:00 +11°C° 0 mm 1 mps 555 mmHg 68%
    19:00 +10°C° 0 mm 1 mps 555 mmHg 72%
    20:00 +10°C° 0 mm 1 mps 555 mmHg 75%
    21:00 +9°C° 0 mm 1 mps 555 mmHg 75%
    22:00 +9°C° 0 mm 1 mps 555 mmHg 75%
    23:00 +9°C° 0 mm 1 mps 555 mmHg 74%

    20 December, Friday

    Time Temperature Precipitation Wind Pressure Humidity
    00:00 +9°C° 0 mm 1 mps 555 mmHg 74%
    01:00 +9°C° 0 mm 1 mps 554 mmHg 74%
    02:00 +8°C° 0 mm 1 mps 554 mmHg 74%
    03:00 +7°C° 0 mm 0 mps 554 mmHg 74%
    04:00 +7°C° 0 mm 0 mps 554 mmHg 75%
    05:00 +7°C° 0 mm 0 mps 554 mmHg 75%
    06:00 +8°C° 0 mm 0 mps 556 mmHg 68%
    07:00 +11°C° 0 mm 1 mps 557 mmHg 61%
    08:00 +12°C° 0 mm 1 mps 558 mmHg 55%
    09:00 +13°C° 0 mm 2 mps 559 mmHg 51%
    10:00 +13°C° 0 mm 3 mps 559 mmHg 47%
    11:00 +15°C° 0 mm 4 mps 559 mmHg 43%
    12:00 +14°C° 0 mm 4 mps 559 mmHg 46%
    13:00 +14°C° 0 mm 4 mps 558 mmHg 50%
    14:00 +13°C° 0 mm 5 mps 558 mmHg 53%
    15:00 +12°C° 0 mm 5 mps 557 mmHg 61%
    16:00 +10°C° 0 mm 4 mps 557 mmHg 69%
    17:00 +8°C° 0 mm 4 mps 556 mmHg 77%
    18:00 +7°C° 0 mm 4 mps 556 mmHg 76%
    19:00 +6°C° 0 mm 4 mps 557 mmHg 74%
    20:00 +7°C° 0 mm 3 mps 557 mmHg 73%
    21:00 +5°C° 0 mm 3 mps 556 mmHg 74%
    22:00 +5°C° 0 mm 3 mps 556 mmHg 74%
    23:00 +4°C° 0 mm 3 mps 556 mmHg 74%
    Show more